DW6125 Weather Reports


time (UTC)temp
F
wind
direction
speed
knots
gust
knots
rain 1hr
in
rain 24hr
in
rain mn
in
humidity
%
barometer
mb
20260906105039 69 114 0.9 4.3 0.00 0.00 0.00 95 1016.1
20260906104039 69 109 1.7 4.3 0.00 0.00 0.00 95 1016.0
20260906103039 69 94 0.0 1.7 0.00 0.00 0.00 96 1016.1
20260906101039 70 69 4.3 4.3 0.00 0.00 0.00 97 1016.1
20260906100039 70 82 0.0 7.0 0.00 0.00 0.00 97 1016.1
20260906095039 70 37 0.0 7.8 0.00 0.00 0.00 97 1016.0
20260906093038 71 111 5.2 5.2 0.00 0.00 0.00 97 1016.1
20260906092040 71 336 0.9 5.2 0.00 0.00 0.00 96 1016.1
20260906091039 71 113 1.7 6.1 0.00 0.00 0.00 96 1016.1
20260906090039 71 56 0.9 4.3 0.00 0.00 0.00 96 1016.2
20260906085040 71 344 2.6 4.3 0.00 0.00 0.00 96 1016.1
20260906084039 71 28 0.9 3.5 0.00 0.00 0.00 96 1016.1
20260906083038 71 62 0.9 2.6 0.00 0.00 0.00 96 1016.1
20260906082038 71 73 0.0 3.5 0.00 0.00 0.00 96 1016.1
20260906081039 71 82 0.0 3.5 0.00 0.00 0.00 96 1015.8
20260906075038 71 131 0.0 5.2 0.00 0.00 0.00 95 1015.6
20260906074039 71 113 3.5 7.0 0.00 0.00 0.00 95 1015.7
20260906073038 71 74 0.9 3.5 0.00 0.00 0.00 95 1015.8
20260906072038 71 15 1.7 5.2 0.00 0.00 0.00 95 1015.9
20260906071038 71 97 0.9 6.1 0.00 0.00 0.00 94 1016.0
20260906070039 71 59 4.3 7.8 0.00 0.00 0.00 94 1016.0
20260906065038 71 65 2.6 4.3 0.00 0.00 0.00 94 1016.2
20260906064038 71 26 0.9 5.2 0.00 0.00 0.00 94 1016.2
20260906063038 71 15 0.9 7.8 0.00 0.00 0.00 94 1016.3
20260906062038 71 11 2.6 4.3 0.00 0.00 0.00 94 1016.4
20260906061038 71 62 1.7 3.5 0.00 0.00 0.00 94 1016.3
20260906060038 71 323 1.7 5.2 0.00 0.00 0.00 94 1016.1
20260906055038 71 360 1.7 3.5 0.00 0.00 0.00 94 1015.9
20260906053038 71 355 0.9 7.8 0.00 0.00 0.00 94 1015.8
20260906052038 71 26 0.9 3.5 0.00 0.00 0.00 94 1015.8
20260906051038 71 97 2.6 5.2 0.00 0.00 0.00 94 1015.8
20260906050038 71 22 1.7 5.2 0.00 0.00 0.00 94 1015.8
20260906045038 70 71 2.6 6.1 0.00 0.00 0.00 94 1015.7
20260906044038 71 13 0.0 7.0 0.00 0.00 0.00 94 1015.6
20260906043038 71 41 0.9 4.3 0.00 0.00 0.00 94 1015.4
20260906042038 71 67 0.0 3.5 0.00 0.00 0.00 94 1015.6
20260906041038 71 348 0.0 5.2 0.00 0.00 0.00 93 1015.5
20260906035038 72 313 3.5 8.7 0.00 0.00 0.00 93 1015.6
20260906034038 72 329 2.6 5.2 0.00 0.00 0.00 93 1015.6
20260906033038 72 112 0.0 7.8 0.00 0.00 0.00 92 1015.5
20260906030038 73 61 4.3 7.0 0.00 0.00 0.00 91 1015.0
20260906025037 73 110 0.9 9.6 0.00 0.00 0.00 90 1014.9
20260906023037 74 87 4.3 8.7 0.00 0.00 0.00 90 1015.1
20260906022038 75 27 0.0 8.7 0.00 0.00 0.00 89 1014.9
20260906021037 76 12 3.5 7.8 0.00 0.00 0.00 89 1014.8
20260906020038 76 128 0.9 7.0 0.00 0.00 0.00 88 1014.7
20260906015037 77 309 1.7 10.4 0.00 0.00 0.00 87 1014.5
20260906014037 77 331 2.6 11.3 0.00 0.00 0.00 86 1014.3
20260906012037 79 342 2.6 7.8 0.00 0.00 0.00 84 1014.2
20260906011037 79 52 0.9 11.3 0.00 0.00 0.00 83 1013.9
20260906005037 81 78 2.6 7.0 0.00 0.00 0.00 82 1013.8
20260906004037 81 44 3.5 10.4 0.00 0.00 0.00 82 1013.7
20260906003037 82 306 1.7 7.8 0.00 0.00 0.00 82 1013.5
20260906002038 83 20 2.6 11.3 0.00 0.00 0.00 81 1013.5
20260906001037 83 260 3.5 7.8 0.00 0.00 0.00 80 1013.4
20260906000037 84 117 3.5 11.3 0.00 0.00 0.00 80 1013.2
20260905235037 85 23 1.7 10.4 0.00 0.00 0.00 78 1013.2
20260905234037 87 103 2.6 11.3 0.00 0.00 0.00 77 1013.2
20260905233037 89 9 6.1 13.0 0.00 0.00 0.00 74 1013.1
20260905230037 90 323 2.6 9.6 0.00 0.00 0.00 70 1012.7
20260905225037 91 313 0.0 9.6 0.00 0.00 0.00 70 1012.6
20260905224037 91 69 1.7 12.2 0.00 0.00 0.00 69 1012.5
20260905223037 91 313 1.7 7.8 0.00 0.00 0.00 69 1012.6
20260905221037 92 19 6.1 9.6 0.00 0.00 0.00 68 1012.6
20260905220037 92 338 1.7 10.4 0.00 0.00 0.00 69 1012.6
20260905215037 93 331 7.8 8.7 0.00 0.00 0.00 68 1012.6
20260905214037 92 347 1.7 8.7 0.00 0.00 0.00 68 1012.5
20260905213037 93 11 8.7 12.2 0.00 0.00 0.00 69 1012.7
20260905212037 93 30 1.7 9.6 0.00 0.00 0.00 68 1012.6
20260905210037 93 338 4.3 7.0 0.00 0.00 0.00 69 1012.8
20260905200037 94 264 0.9 7.8 0.00 0.00 0.00 67 1013.0
20260905195037 94 330 1.7 10.4 0.00 0.00 0.00 68 1013.0
20260905194037 93 261 6.1 7.0 0.00 0.00 0.00 67 1012.9
20260905193036 93 273 1.7 6.1 0.00 0.00 0.00 67 1013.1
20260905192036 94 264 3.5 7.8 0.00 0.00 0.00 66 1013.2
20260905191037 93 348 1.7 7.0 0.00 0.00 0.00 67 1013.3
20260905190036 93 279 0.9 5.2 0.00 0.00 0.00 68 1013.5
20260905185036 94 275 1.7 6.1 0.00 0.00 0.00 66 1013.5
20260905184036 93 272 0.0 7.0 0.00 0.00 0.00 69 1013.5
20260905182036 94 271 1.7 7.0 0.00 0.00 0.00 65 1013.8
20260905181037 94 331 5.2 7.8 0.00 0.00 0.00 66 1013.8
20260905180036 94 276 2.6 5.2 0.00 0.00 0.00 66 1013.9
20260905175036 94 61 0.0 7.8 0.00 0.00 0.00 65 1014.0
20260905174036 94 263 0.9 6.1 0.00 0.00 0.00 65 1014.1
20260905173036 94 263 5.2 5.2 0.00 0.00 0.00 65 1013.9
20260905172036 93 278 0.0 5.2 0.00 0.00 0.00 66 1014.1
20260905171039 92 268 0.0 6.1 0.00 0.00 0.00 68 1014.2
20260905170037 92 272 1.7 6.1 0.00 0.00 0.00 67 1014.2
20260905164036 92 288 0.0 6.1 0.00 0.00 0.00 68 1014.3
20260905163036 91 261 2.6 6.1 0.00 0.00 0.00 70 1014.3
20260905162036 91 270 2.6 7.0 0.00 0.00 0.00 72 1014.2
20260905161036 91 271 0.0 5.2 0.00 0.00 0.00 71 1014.2
20260905160036 91 275 3.5 6.1 0.00 0.00 0.00 69 1014.3
20260905154036 90 270 3.5 7.0 0.00 0.00 0.00 69 1014.3
20260905153036 90 265 1.7 6.1 0.00 0.00 0.00 69 1014.4
20260905152036 89 268 0.0 5.2 0.00 0.00 0.00 75 1014.1
20260905151036 89 267 1.7 3.5 0.00 0.00 0.00 74 1014.0
20260905150036 89 270 2.6 6.1 0.00 0.00 0.00 73 1014.0
20260905145036 88 276 1.7 6.1 0.00 0.00 0.00 73 1014.1
20260905144036 88 269 1.7 2.6 0.00 0.00 0.00 77 1014.1
20260905143036 87 264 1.7 5.2 0.00 0.00 0.00 78 1014.1
20260905142036 86 272 0.9 6.1 0.00 0.00 0.00 81 1014.4
20260905141036 84 265 5.2 5.2 0.00 0.00 0.00 80 1014.2
20260905140036 84 259 3.5 6.1 0.00 0.00 0.00 83 1014.2
20260905135037 83 271 2.6 6.1 0.00 0.00 0.00 83 1014.1
20260905134036 83 274 1.7 3.5 0.00 0.00 0.00 85 1014.1
20260905133035 82 278 2.6 3.5 0.00 0.00 0.00 86 1014.1
20260905132035 81 274 1.7 5.2 0.00 0.00 0.00 87 1014.1
20260905131035 80 267 0.9 1.7 0.00 0.00 0.00 89 1014.2
20260905130036 80 267 0.9 1.7 0.00 0.00 0.00 90 1014.2
20260905125035 79 267 0.9 1.7 0.00 0.00 0.00 91 1014.0
20260905124036 78 267 0.0 0.9 0.00 0.00 0.00 91 1014.0
20260905123036 78 267 0.9 0.9 0.00 0.00 0.00 91 1014.1
20260905122035 77 267 0.0 0.9 0.00 0.00 0.00 92 1013.9
20260905121035 77 267 0.0 0.0 0.00 0.00 0.00 93 1013.9
20260905120036 76 267 0.0 0.9 0.00 0.00 0.00 94 1013.8
20260905115035 76 267 0.0 1.7 0.00 0.00 0.00 94 1013.7
20260905113035 77 267 0.0 1.7 0.00 0.00 0.00 93 1013.7
20260905112035 77 267 0.0 0.0 0.00 0.00 0.00 92 1013.8
20260905111035 77 267 0.0 0.0 0.00 0.00 0.00 92 1013.7
20260905110036 78 267 0.0 0.0 0.00 0.00 0.00 91 1013.7